Weather in Vyazniki

Russia / Vladimir Oblast     56°14′49″N   42°09′31″E
temp.,
°C
wind,
m/s
gust,
m/s
humid.,
%
clouds,
%
prec.,
mm/h
press.,
hPa
HPBL,
m
12 may, wed
wed1200:00+12se119496 0.5 102711
03:00+11s119529 0.5 102711
06:00+13ene269498 0.0 1027169
09:00+19ene587468 0.2 1026530
12:00+23e695619 0.0 10251388
15:00+23e6115534 0.0 10232573
18:00+19se287487 0.8 1021314
21:00+16ese2281100 1.3 102217
13 may, thu
thu1300:00+13ese37895 0.0 1022126
03:00+11ese359026 0.0 102277
06:00+13se27904 0.0 1022215
09:00+18ese467621 0.0 1021731
12:00+21ese6106129 0.0 10191235
15:00+17ese71375100 0.6 1018881
18:00+16se51194100 2.9 1017680
21:00+14se31098100 5.8 1016276
14 may, fri
fri1400:00+13ssw23975 0.5 101756
03:00+12ssw229595 0.5 101822
06:00+13s239284 0.0 1019116
09:00+17s3581100 0.0 1019480
12:00+21sse35625 0.0 10191097
15:00+23sse465355 0.0 10181807
18:00+22se37695 0.0 1016266
21:00+17ese3886100 0.1 1015128
15 may, sat
sat1500:00+16sse3795100 2.8 1014141
03:00+16sse379596 2.8 1014132
06:00+17sse379454 0.0 1014208
09:00+21sse3579100 0.4 1013394
12:00+25s7105466 0.0 10121109
15:00+24ssw7136123 0.0 10121666
18:00+21s61269100 0.0 1011624
21:00+17s31084100 0.0 1012197
16 may, sun
sun1600:00+16s41087100 0.1 1011236
03:00+14s3895100 0.1 1012155
06:00+16ssw36910 0.0 1012204
09:00+20sw466556 0.0 1013812
12:00+22sw465481 0.0 10131310
15:00+23sw57500 0.0 10121816
18:00+22sw35630 0.0 1012221
21:00+16wnw227928 0.0 101419